International Skating Union - Official Site

ISU World Cup Astana
December 2-4, 2016

Draw | Lap Times | Index | World Cup

Referee: Bjørn  PETTERSEN  (NOR)
Starter: Jan  ZWIER  (NED)
StartTime: EndTime: Air Temp: Ice Temp: Humidity:
19:00 19:43 16.8℃ -6.7℃ 39.0
Result 3000m Ladies Division A
Rankings as of Dec 2 2016 10:01PM
Rank: No.: Name: Nation: Time: Behind: Points:
1 229 Martina  Sáblíková CZE CZE 4:02.90200m - 20.41 - (20.4)
600m - 51.28 - (30.8)
1000m - 1:22.51 - (31.2)
1400m - 1:53.86 - (31.3)
1800m - 2:25.78 - (31.9)
2200m - 2:57.97 - (32.1)
2600m - 3:30.21 - (32.2)
3000m - 4:02.90 - (32.6)
100
2 293 Anna  Yurakova RUS RUS 4:03.84200m - 20.53 - (20.5)
600m - 51.83 - (31.3)
1000m - 1:22.68 - (30.8)
1400m - 1:54.09 - (31.4)
1800m - 2:26.02 - (31.9)
2200m - 2:58.21 - (32.1)
2600m - 3:30.97 - (32.7)
3000m - 4:03.84 - (32.8)
0.94 80
3 249 Miho  Takagi JPN JPN 4:05.68200m - 20.36 - (20.3)
600m - 51.83 - (31.4)
1000m - 1:23.92 - (32.0)
1400m - 1:56.31 - (32.3)
1800m - 2:28.62 - (32.3)
2200m - 3:00.71 - (32.0)
2600m - 3:32.78 - (32.0)
3000m - 4:05.68 - (32.9)
2.78 70
4 205 Ivanie  Blondin CAN CAN 4:05.94200m - 20.71 - (20.7)
600m - 51.97 - (31.2)
1000m - 1:23.58 - (31.6)
1400m - 1:54.97 - (31.3)
1800m - 2:27.09 - (47.0)
2200m - 2:59.34 - (32.2)
2600m - 3:32.13 - (32.7)
3000m - 4:05.94 - (33.8)
3.04 60
5 264 Antoinette  de Jong NED NED 4:06.14200m - 20.64 - (20.6)
600m - 52.01 - (31.3)
1000m - 1:23.11 - (31.1)
1400m - 1:54.93 - (31.8)
1800m - 2:27.44 - (32.5)
2200m - 3:00.26 - (32.8)
2600m - 3:33.21 - (32.9)
3000m - 4:06.14 - (32.9)
3.24 50
6 240 Claudia  Pechstein GER GER 4:06.50200m - 20.51 - (20.5)
600m - 52.27 - (31.7)
1000m - 1:24.31 - (32.0)
1400m - 1:56.57 - (32.2)
1800m - 2:28.47 - (31.9)
2200m - 3:00.98 - (32.5)
2600m - 3:33.69 - (32.7)
3000m - 4:06.50 - (32.8)
3.60 45
7 274 Melissa  Wijfje NED NED 4:06.72200m - 20.61 - (20.6)
600m - 52.51 - (31.9)
1000m - 1:24.97 - (32.4)
1400m - 1:57.07 - (32.1)
1800m - 2:29.39 - (32.3)
2200m - 3:01.71 - (32.3)
2600m - 3:34.22 - (32.5)
3000m - 4:06.72 - (32.5)
3.82 40
8 211 Isabelle  Weidemann CAN CAN 4:06.73200m - 20.69 - (20.6)
600m - 52.13 - (31.4)
1000m - 1:23.77 - (31.6)
1400m - 1:55.85 - (32.0)
1800m - 2:28.11 - (32.2)
2200m - 3:00.88 - (32.7)
2600m - 3:33.62 - (32.7)
3000m - 4:06.73 - (33.1)
3.83 35
9 238 Bente  Kraus GER GER 4:06.74200m - 20.58 - (20.5)
600m - 51.77 - (31.1)
1000m - 1:24.35 - (32.5)
1400m - 1:55.30 - (30.9)
1800m - 2:27.65 - (32.3)
2200m - 3:00.43 - (32.7)
2600m - 3:33.56 - (33.1)
3000m - 4:06.74 - (33.1)
3.84 30
10 272 Annouk  van der Weijden NED NED 4:07.96200m - 19.70 - (19.7)
600m - 51.31 - (31.6)
1000m - 1:23.43 - (32.1)
1400m - 1:55.48 - (32.0)
1800m - 2:27.96 - (32.4)
2200m - 3:01.07 - (33.1)
2600m - 3:34.42 - (33.3)
3000m - 4:07.96 - (33.5)
5.06 25
11 292 Natalia  Voronina RUS RUS 4:08.43200m - 19.94 - (19.9)
600m - 51.40 - (31.4)
1000m - 1:23.45 - (32.0)
1400m - 1:55.57 - (32.1)
1800m - 2:28.38 - (32.8)
2200m - 3:01.47 - (33.0)
2600m - 3:34.88 - (33.4)
3000m - 4:08.43 - (33.5)
5.53 21
12 266 Marije  Joling NED NED 4:09.87200m - 19.87 - (19.8)
600m - 50.80 - (30.9)
1000m - 1:22.11 - (31.3)
1400m - 1:54.75 - (32.6)
1800m - 2:28.37 - (33.6)
2200m - 3:01.84 - (33.4)
2600m - 3:35.75 - (33.9)
3000m - 4:09.87 - (34.1)
6.97 18
13 295 Mia  Manganello USA USA 4:10.51200m - 20.71 - (20.7)
600m - 51.83 - (31.1)
1000m - 1:23.69 - (31.8)
1400m - 1:55.70 - (32.0)
1800m - 2:28.40 - (32.7)
2200m - 3:01.50 - (33.1)
2600m - 3:35.33 - (33.8)
3000m - 4:10.51 - (35.1)
7.61 16
14 257 Bo-Reum  Kim KOR KOR 4:10.61200m - 20.81 - (20.8)
600m - 52.54 - (31.7)
1000m - 1:24.90 - (32.3)
1400m - 1:57.55 - (32.6)
1800m - 2:30.50 - (32.9)
2200m - 3:03.45 - (32.9)
2600m - 3:36.79 - (33.3)
3000m - 4:10.61 - (33.8)
7.71 14
15 242 Francesca  Lollobrigida ITA ITA 4:11.19200m - 20.03 - (20.0)
600m - 51.63 - (31.6)
1000m - 1:23.43 - (31.8)
1400m - 1:56.16 - (32.7)
1800m - 2:28.98 - (32.8)
2200m - 3:02.75 - (33.7)
2600m - 3:36.58 - (33.8)
3000m - 4:11.19 - (34.6)
8.29 12
16 246 Misaki  Oshigiri JPN JPN 4:12.77200m - 20.32 - (20.3)
600m - 52.51 - (32.1)
1000m - 1:25.02 - (32.5)
1400m - 1:57.72 - (32.7)
1800m - 2:30.86 - (33.1)
2200m - 3:04.45 - (33.5)
2600m - 3:38.45 - (34.0)
3000m - 4:12.77 - (34.3)
9.87 10